sat.trackr.live / text

‹ back to catalog

STARLINK-34907

NORAD 65213 · 2025-176R

PAYLOAD ACTIVE UNKNOWN

§ Identity

Operator
Country
US
Launch date
2025-08-14
Launch site
AFETR
Launch vehicle
Mass (kg)
RCS (m²)

Purposes: comms

External: N2YO · Heavens-Above · Gunter

§ Orbital elements

Epoch: 2026-09-20T10:42:17.531136Z

Period
93.85 min
Inclination
53.1594°
Eccentricity
0.0001495
Mean motion
15.34382154 rev/d
Perigee alt
461.7 km
Apogee alt
463.8 km
Semi-major
6,840.9 km
B*
3.1201e-5
RAAN
324.1927°
Arg perigee
90.6297°
Mean anomaly
269.4877°
Rev number
6,299

§ Raw data

STARLINK-349071 65213U 25176R   26263.44603624  .00000677  00000+0  31201-4 0  99962 65213  53.1594 324.1927 0001495  90.6297 269.4877 15.34382154 62991

JSON: /api/v1/satellites/65213 · /tle

For live sub-satellite position, see the globe view (requires WebGL).

§ Visibility from observer

Set your observer location to see the next 7 days of passes ≥ 10°. The values pass through the URL so the page stays shareable.

No JS? Fill the form by hand. The geolocation button needs JavaScript.